Location: Lenham
(51.2333°N, 0.7167°E)
Time: 22:11:31
(UTC+00:00)

Daily predictions for brighter satellites

Satellite Brightness Start Highest point End
(mag) Time Altitude Azimuth Time Altitude Azimuth Time Altitude Azimuth
Cosmos 2219 4.4 16:22:52 10° NNW 16:27:19 22° NE 16:31:46 10° E
Thor Agena Rocket 3.8 16:23:13 10° SE 16:28:11 47° ENE 16:33:07 10° N
CENTAUR R/B 2.9 16:22:45 10° WSW 16:28:34 66° NW 16:36:00 10° NE
USA 290 2.2 16:28:50 10° NNW 16:32:05 60° ENE 16:35:18 10° SE
Cosmos 1484 Rocket 2.5 16:29:12 10° SSE 16:32:40 64° ENE 16:36:09 10° N
Cosmos 1544 Rocket 3.9 16:28:51 10° SSE 16:33:05 48° E 16:37:21 10° NNE
SL-16 R/B 2.7 16:27:09 10° NNE 16:33:20 58° ESE 16:39:24 10° S
Cosmos 1844 Rocket 4.4 16:31:08 10° N 16:33:54 14° NNE 16:36:40 10° NE
Lacrosse 5 rocket 1.5 16:30:17 10° W 16:33:57 50° NNW 16:37:33 10° NE
Cosmos 1980 Rocket 4.0 16:33:33 10° ESE 16:35:19 11° E 16:37:05 10° ENE
Iridium 51 3.7 16:35:23 10° S 16:38:32 87° E 16:41:46 10° N
Lacrosse 4 Rocket 2.6 16:35:26 10° WSW 16:39:10 34° NW 16:42:50 10° NNE
BREEZE M DEB (TANK) 4.1 16:37:39 10° SSW 16:39:13 14° SSE 16:40:29 10° ESE
Meteor 1-27 4.4 16:35:39 10° SSW 16:41:27 82° WNW 16:47:14 10° N
CORIOLIS 4.2 16:37:11 10° SE 16:42:22 55° ENE 16:47:36 10° N
Cosmos 2263 Rocket 2.9 16:37:38 10° NNW 16:42:43 33° NE 16:47:48 10° ESE
Cosmos 2228 3.1 16:39:37 10° SSW 16:43:52 80° W 16:48:08 10° N
Cosmos 1777 Rocket 4.5 16:39:15 10° S 16:44:11 43° ESE 16:49:09 10° NE
CZ-2D R/B 3.6 16:46:17 10° SE 16:49:00 27° ENE 16:51:43 10° N
Okean 1-7 Rocket 3.9 16:46:06 10° N 16:50:18 42° ENE 16:54:27 10° SE
Cosmos 1455 Rocket 4.5 16:47:06 10° SW 16:51:09 38° WNW 16:55:17 10° N
Cosmos 1602 Rocket 3.5 16:47:56 10° N 16:52:18 62° ENE 16:56:36 10° SSE
IRIDIUM 114 4.5 16:47:13 10° N 16:52:21 51° E 16:57:25 10° SSE
Cosmos 1461 3.3 16:51:43 10° SSW 16:55:24 41° ESE 16:58:30 14° NE
Cosmos 1933 4.1 16:54:38 10° SSE 16:57:57 29° E 17:01:18 10° NNE
Cosmos 2227 Rocket 2.2 16:53:51 10° NNW 16:59:28 59° NE 17:05:02 10° SE
USA 215 3.6 16:53:50 11° ENE 16:59:56 56° N 17:06:18 10° W
Cosmos 1634 Rocket 4.3 16:54:11 10° SSW 17:00:20 69° WNW 17:06:31 10° N
IRS-1C 4.2 16:55:11 10° SE 17:00:22 56° ENE 17:05:35 10° N
YAOGAN 1 3.8 16:58:18 10° ESE 17:01:17 19° ENE 17:04:17 10° NNE
IRIDIUM 103 4.3 16:56:20 10° N 17:01:32 61° E 17:06:41 10° SSE
Cosmos 1743 2.3 16:59:37 10° NNW 17:02:54 82° WSW 17:06:06 10° S
NOSS 7 (H) 3.9 17:00:09 10° NW 17:03:04 81° NE 17:06:11 10° SE
Cosmos 1486 Rocket 4.0 16:58:39 10° SSW 17:03:51 77° ESE 17:09:07 10° NNE
Cosmos 2369 Rocket 4.1 16:59:35 10° W 17:03:53 22° NW 17:08:14 10° NNE
SJ-12 3.9 17:01:29 10° SE 17:05:06 46° ENE 17:08:45 10° N
Cosmos 2151 2.8 17:02:15 10° N 17:06:25 82° ENE 17:10:36 10° SSE
Cosmos 2360 4.2 17:02:16 10° SSW 17:07:59 79° ESE 17:13:45 10° NNE
Cosmos 2279 Rocket 4.1 17:05:41 10° SSW 17:11:54 80° W 17:18:11 10° N
Cosmos 1655 Rocket 4.2 17:06:11 10° N 17:12:10 46° ENE 17:18:06 10° SE
IGS 5A 4.1 17:10:15 10° S 17:14:08 57° W 17:18:05 10° NNW
Cosmos 1867 3.7 17:08:51 10° NW 17:14:20 81° SW 17:19:46 10° SE
Cosmos 1697 Rocket 3.0 17:09:29 10° S 17:14:48 46° ESE 17:19:15 15° NE
Cosmos 990 Rocket 4.4 17:10:31 10° S 17:15:16 40° ESE 17:19:09 15° NE
Cosmos 1953 Rocket 4.1 17:11:56 10° N 17:16:02 35° ENE 17:20:08 10° SE
MOS 1 Rocket 3.5 17:13:02 10° SSE 17:17:53 58° ENE 17:23:02 10° N
SAR-Lupe-4 3.4 17:14:58 10° SSE 17:18:29 69° ENE 17:22:02 10° N
IRIDIUM 106 4.3 17:14:38 10° N 17:19:54 84° E 17:25:07 10° S
NOSS 2-2 (D) 3.5 17:20:22 10° WSW 17:23:24 43° NW 17:25:11 20° NNE
Cosmos 1782 3.5 17:20:24 10° SSW 17:23:52 48° WNW 17:27:22 10° N
Cosmos 2084 Rocket 4.5 17:20:45 10° NW 17:24:48 47° SW 17:28:50 10° SSE
ARIANE 5 R/B 2.5 17:20:11 10° SSE 17:25:16 86° ENE 17:30:27 10° NNW
Cosmos 1825 Rocket 3.4 17:21:08 10° N 17:25:30 68° ENE 17:29:48 10° SSE
Resurs 01 Rocket 3.8 17:29:46 10° NNE 17:29:46 10° NNE 17:29:51 10° NNE
SAR-Lupe-1 3.9 17:25:45 10° SSE 17:29:21 79° ENE 17:32:59 10° NNW
Cosmos 2098 Rocket 3.8 17:27:52 10° SSW 17:32:06 59° WNW 17:37:06 10° N
Cosmos 1656 4.2 17:27:38 10° SW 17:33:10 57° NW 17:38:38 11° NNE
USA 81 4.4 17:28:12 10° N 17:33:11 41° ENE 17:38:08 10° SE
UNK 3.7 17:29:36 10° NNE 17:34:13 86° WNW 17:38:46 10° SSW
CZ-2D R/B 3.8 17:32:38 10° SE 17:36:35 41° ENE 17:40:29 10° N
NOSS 3-2 (A) 3.8 17:32:36 10° WSW 17:37:45 53° NW 17:42:25 18° NE
Gbstr 26 Del rocket 3.4 17:34:29 10° SW 17:38:16 40° SSE 17:39:37 29° ESE
NOSS 3-2 (C) 3.1 17:33:59 10° SW 17:39:07 87° SE 17:43:15 21° NE
SPOT 1/Viking Rocket 3.5 17:37:10 10° SSE 17:42:17 62° ENE 17:47:26 10° N
Cosmos 1076 Rocket 3.4 17:39:16 10° N 17:43:34 68° ENE 17:47:52 10° SSE
NOSS 2-2 (E) 3.8 17:40:57 10° WSW 17:43:53 35° NW 17:45:00 26° N
PSLV R/B 3.9 17:43:07 29° ESE 17:44:16 36° ENE 17:48:00 10° N
SMAP 4.0 17:39:51 10° S 17:44:23 51° W 17:48:57 10° NNW
[s.n.66845] 3.6 17:42:49 10° NNW 17:43:44 18° N 17:43:44 18° N
[s.n.66847] 3.6 17:43:15 10° NNW 17:44:11 18° N 17:44:11 18° N
Cosmos 2266 Rocket 4.4 17:40:01 10° NNW 17:46:06 64° W 17:52:04 10° S
[s.n.66846] 3.6 17:43:41 10° NNW 17:44:37 18° N 17:44:37 18° N
Cosmos 2082 3.9 17:41:09 10° NNW 17:46:42 48° NE 17:50:42 18° ESE
CZ-4C R/B 3.7 17:40:00 10° NW 17:46:47 56° SW 17:55:08 10° SSE
[s.n.66843] 3.6 17:44:14 10° NNW 17:45:08 18° N 17:45:08 18° N
[s.n.66844] 3.7 17:44:40 10° NNW 17:45:35 18° N 17:45:35 18° N
[s.n.66842] 3.7 17:45:12 10° NNW 17:46:06 18° N 17:46:06 18° N
SL-19 R/B 4.4 17:42:49 10° SE 17:48:01 49° ENE 17:53:32 10° N
[s.n.66841] 3.7 17:45:39 10° NNW 17:46:34 18° N 17:46:34 18° N
COSMO-SKYMED 1 3.5 17:49:12 26° ESE 17:49:12 26° ESE 17:51:54 10° SSE
[s.n.66840] 3.7 17:46:10 10° NNW 17:47:03 18° N 17:47:03 18° N
Landsat 7 4.4 17:44:34 10° S 17:49:10 58° W 17:53:47 10° NNW
[s.n.66838] 3.7 17:46:39 10° NNW 17:47:32 18° NNW 17:47:32 18° NNW
[s.n.66839] 3.7 17:47:09 10° NNW 17:48:01 18° NNW 17:48:01 18° NNW
IRS-P3 4.1 17:44:31 10° SSE 17:49:50 84° WSW 17:55:12 10° NNW
SJ-6F 4.4 17:46:01 10° SSE 17:50:00 81° WSW 17:54:03 10° NNW
[s.n.66837] 3.7 17:47:36 10° NNW 17:48:28 18° NNW 17:48:28 18° NNW
Cosmos 2058 Rocket 3.6 17:46:11 10° SSE 17:50:18 37° E 17:50:45 36° ENE
[s.n.66836] 3.7 17:48:06 10° NNW 17:48:58 18° NNW 17:48:58 18° NNW
[s.n.66835] 3.7 17:48:36 10° NNW 17:49:28 17° NNW 17:49:28 17° NNW
[s.n.66834] 3.7 17:49:06 10° NNW 17:49:57 17° NNW 17:49:57 17° NNW
Cosmos 2297 Rocket 4.1 17:46:50 10° NW 17:51:46 31° WSW 17:56:41 10° SSW
[s.n.66833] 3.7 17:49:32 10° NNW 17:50:23 17° NNW 17:50:23 17° NNW
[s.n.66832] 3.7 17:50:05 10° NNW 17:50:56 17° NNW 17:50:56 17° NNW
[s.n.66831] 3.8 17:50:30 10° NNW 17:51:20 17° NNW 17:51:20 17° NNW
[s.n.66830] 3.8 17:50:56 10° NNW 17:51:47 17° NNW 17:51:47 17° NNW
[s.n.66828] 3.8 17:51:22 10° NNW 17:52:12 17° NNW 17:52:12 17° NNW
[s.n.66829] 3.8 17:51:54 10° NNW 17:52:44 17° NNW 17:52:44 17° NNW
[s.n.66827] 3.8 17:52:26 10° NNW 17:53:15 17° NNW 17:53:15 17° NNW
[s.n.66826] 3.8 17:52:56 10° NNW 17:53:45 17° NNW 17:53:45 17° NNW
[s.n.66825] 3.8 17:53:23 10° NNW 17:54:11 17° NNW 17:54:11 17° NNW
[s.n.66824] 3.8 17:53:54 10° NNW 17:54:42 17° NNW 17:54:42 17° NNW
[s.n.66823] 3.8 17:54:25 10° NNW 17:55:12 17° NNW 17:55:12 17° NNW
[s.n.66822] 3.9 17:54:54 10° NNW 17:55:41 17° NNW 17:55:41 17° NNW
[s.n.66821] 3.9 17:55:23 10° NNW 17:56:09 17° NNW 17:56:09 17° NNW
Cosmos 1538 Rocket 3.9 17:53:53 10° NNW 17:59:12 85° ENE 18:04:32 10° SSE
Cosmos 1606 Rocket 3.8 17:56:59 10° SSW 18:01:23 69° WNW 18:05:39 11° N
Meteor 1-26 Rocket 4.3 17:59:04 10° SSE 18:04:10 45° E 18:05:35 37° NE
Lacrosse 5 rocket 2.2 18:08:07 10° WNW 18:11:16 32° N 18:11:16 32° N
Cosmos 1553 Rocket 4.1 18:05:44 10° SSE 18:11:35 47° E 18:14:51 26° NNE
Cosmos 2219 3.1 18:06:36 10° NNW 18:12:23 80° ENE 18:17:56 11° SSE
GEOS 3 Rocket 3.9 18:09:53 29° NNE 18:12:39 69° NW 18:17:59 10° WSW
BREEZE-M DEB (TANK) 3.2 18:11:10 10° SW 18:12:05 26° SW 18:12:05 26° SW
Resurs 1-3 3.4 18:08:47 10° SSE 18:13:04 77° ENE 18:17:24 10° N
SL-16 R/B 4.0 18:11:08 10° N 18:16:37 34° WNW 18:22:03 10° WSW
Lacrosse 4 Rocket 3.9 18:17:16 10° NW 18:18:10 11° NNW 18:19:03 10° N
Cosmos 1980 Rocket 2.1 18:12:36 10° SSW 18:18:11 64° ESE 18:19:44 46° NE
Cosmos 1844 Rocket 3.3 18:14:16 10° NNW 18:19:00 36° NE 18:19:00 36° NE
Cosmos 1354 Rocket 4.5 18:14:22 10° SW 18:19:33 59° WNW 18:22:53 22° NNE
CENTAUR R/B 3.8 18:14:35 10° WNW 18:20:32 35° N 18:24:02 24° NNE
Meteor 2-20 4.4 18:15:51 10° S 18:22:02 87° W 18:28:14 10° N
USA 281 4.3 18:22:44 25° NNE 18:22:44 25° NNE 18:27:16 10° NNW
NOSS 2-3 (C) 3.6 18:21:17 10° SW 18:23:55 50° SSW 18:23:55 50° SSW
Spot 4 Rocket 4.0 18:19:47 10° SSE 18:24:54 81° WSW 18:30:03 10° NNW
Cosmos 1726 Rocket 4.3 18:20:45 10° SSW 18:25:19 56° WNW 18:28:51 16° N
Cosmos 1745 Rocket 4.3 18:19:40 10° N 18:24:48 43° NE 18:24:48 43° NE
Cosmos 2263 Rocket 2.7 18:21:24 10° NW 18:26:59 60° WSW 18:32:34 10° SSE
Cosmos 1898 Rocket 3.4 18:25:18 10° S 18:30:11 61° ESE 18:30:11 61° ESE
Cosmos 2369 4.0 18:25:45 10° S 18:30:42 47° SE 18:30:42 47° SE
Cosmos 1244 Rocket 4.4 18:25:01 10° N 18:31:21 90° SE 18:37:33 10° S
Cosmos 1461 4.0 18:28:39 10° WSW 18:32:14 33° NW 18:32:37 32° NNW
Cosmos 44 Rocket 4.1 18:28:04 10° NW 18:32:08 40° NNE 18:32:08 40° NNE
YAOGAN 1 2.9 18:32:31 10° S 18:36:44 62° W 18:40:59 10° NNW
SKYMED 2 3.8 18:36:02 47° NNW 18:37:06 66° WNW 18:41:24 10° SSW
Cosmos-2242 3.2 18:33:04 10° S 18:36:35 61° SSW 18:36:35 61° SSW
Meteor 1-17 Rocket 4.5 18:32:13 10° N 18:37:49 77° ENE 18:40:26 32° SSE
USA 238 DEB 3.4 18:33:40 10° SW 18:39:48 77° SE 18:41:14 56° ENE
USA 238 3.4 18:33:46 10° SW 18:39:55 77° SE 18:41:19 57° ENE
Cosmos 923 Rocket 3.8 18:35:51 10° NNW 18:41:05 86° ENE 18:41:32 75° SE
USA 215 3.3 18:41:10 51° ENE 18:42:30 61° NNE 18:48:58 10° WNW
Cosmos 372 Rocket 3.8 18:37:41 10° SSW 18:42:51 90° WNW 18:43:10 79° NNE
Cosmos 2227 Rocket 4.1 18:38:24 10° NW 18:43:09 28° WSW 18:47:53 10° SSW
Meteor 2-20 Rocket 4.4 18:37:31 10° S 18:43:46 84° W 18:48:13 19° N
Cosmos 1943 Rocket 4.4 18:41:48 10° N 18:42:28 11° N 18:42:28 11° N
SL-08 R/B 4.5 18:39:39 10° N 18:46:01 85° W 18:52:22 10° S
Cosmos 1937 Rocket 4.2 18:44:01 10° S 18:47:30 42° S 18:47:30 42° S
BREEZE-M DEB (TANK) 4.4 18:46:51 10° WNW 18:51:04 88° SSW 18:54:54 43° ESE
Cosmos 1386 Rocket 4.3 18:45:08 10° N 18:51:15 81° E 18:57:26 10° SSE
NOSS 2-3 (E) 4.5 18:47:58 10° WSW 18:50:28 38° W 18:50:28 38° W
Cosmos 1697 Rocket 3.8 18:53:38 10° WSW 18:58:52 39° NW 19:00:59 29° N
Aureole 1 Rocket 3.8 18:54:53 10° SW 18:59:29 63° WNW 19:00:03 59° NNW
Resurs 01 Rocket 4.2 19:07:10 11° NNW 19:07:10 11° NNW 19:07:23 10° NNW
Cosmos 2278 Rocket 4.5 19:00:58 10° N 19:01:48 12° N 19:01:48 12° N
Cosmos 1680 Rocket 4.2 19:08:15 10° NNW 19:12:02 47° NW 19:12:02 47° NW
COSMOS 2455 4.3 19:10:16 10° SSW 19:12:49 26° S 19:12:49 26° S
NOSS 3-2 (C) 4.5 19:25:36 10° W 19:30:40 35° NNW 19:30:40 35° NNW
Cosmos 1980 Rocket 3.9 19:57:38 10° WSW 20:01:31 29° WNW 20:01:31 29° WNW
Cosmos 1844 Rocket 4.5 19:58:08 10° NW 20:00:39 26° NW 20:00:39 26° NW
CENTAUR R/B 4.2 20:06:29 10° NW 20:11:08 32° NNW 20:11:08 32° NNW
